KMAF

Midland International Airport

Airport
ICAO code
KMAF
Summary
ICAO Region
NAM
ICAO Territory
Location

Midland, Texas,

Coordinates
31° 56' 14" N , 102° 12' 28" W
KCC
Airport LOS
Parallel Runway Operation
Airport WX
Sand Storm
Metar
KMAF 130253Z 15011KT 10SM CLR 21/M06 A3011 RMK AO2 SLP161 T02061056 53001 $

Description

Midland International Airport is a public use airport located 15 km southwest of the central business district of Midland, a city in Midland County, Texas.

Climatology

Hot, semi-arid/Steppe climate (Köppen climate classification BSh) - hot, sometimes extremely hot summers and mild to warm winters, with low annual precipitation.

Runways

Designator Length Width Surface Rops
16L/34R 1323 30 ASP Yes/Yes
4/22 1404 23 ASP Yes/Yes
10/28 2530 46 ASP Yes/Yes
16R/34L 2896 46 ASP Yes/Yes

Airport map

Aerial View

SKYbrary Partners:

Safety knowledge contributed by: